STARLINK-5759 (55592 NORAD) Tracking and Keplerian Element Data

This shows tracking and keplerian element data for the satellite.

Feedback or suggestion? Click here.




ElementValue
Catalog55592
NameSTARLINK-5759
Epoch Orbit654
Epoch Day85.25001157
Epoch Year2023
RAAN109.9698
Inclination42.9982
Eccentricity0.000125
Argument of Perigee272.7448
Mean Anonmoly102.6897
Mean Motion15.07906973
Decay Rate-0.01215031
L11 55592U 23020Z 23085.25001157 -.01215031 00000+0 -85048-1 0 9992
L22 55592 42.9982 109.9698 0001250 272.7448 102.6897 15.07906973 6541



Live tracking and technical data element details for STARLINK-5759 (NORAD 55592). STARLINK-5759 can be tracked NOW for your location showing map with azimuth and elevation plus other details from your city location.







IsCatalogInMostPopularTable: catalog: 55592, numindb: -1

Insert: records affected: 1


GetName: 55592 STARLINK-5759

Hit Count: inserted at: Tue, 28 Mar 2023 02:07:14 GMT